Date_and_time,latitude,longitude,wind_speed,RelWindDirFrom,WindDirFrom,air_pressure,air_temperature,relative_humidity,Temp,platform_speed_wrt_ground,air_pressure_at_mean_sea_level,platform_orientation
2019-12-10 00:00,50.630445,-96.9807666666667,8.0,11.0,344,986.99,-16.8,76,0.52,0.0,1016.64,38.0
2019-12-10 00:00,50.630445,-96.9807666666667,9.0,9.0,355,987.02,-16.8,77,0.52,0.0,1016.67,90.0
2019-12-10 00:10,50.630445,-96.9807766666667,9.3,12.4,349,987.07,-16.8,77,0.52,0.0,1016.73,90.0
2019-12-10 00:20,50.6304433333333,-96.9807766666667,9.5,13.0,345,987.29,-16.9,74,0.52,0.0,1016.97,90.0
2019-12-10 00:30,50.6304466666667,-96.9807733333333,10.3,13.7,344,987.38,-17.0,73,0.53,0.0,1017.06,90.0
2019-12-10 00:40,50.63045,-96.9807716666667,11.3,16.3,352,987.48,-17.0,75,0.53,0.0,1017.16,90.0
2019-12-10 00:50,50.6304516666667,-96.98077,11.9,17.7,342,987.54,-17.1,75,0.54,0.0,1017.23,90.0
2019-12-10 01:00,50.6304633333333,-96.9807333333333,13.2,18.7,345,987.71,-17.3,73,0.56,0.0,1017.41,38.7
2019-12-10 01:10,50.6304616666667,-96.9808116666667,11.2,17.4,344,987.88,-17.3,74,0.56,0.0,1017.61,38.7
2019-12-10 01:20,50.6304533333333,-96.9807966666667,12.5,19.8,340,987.95,-17.4,74,0.56,0.0,1017.69,38.7
2019-12-10 01:30,50.6304483333333,-96.980775,16.5,22.6,345,988.05,-17.8,71,0.56,0.0,1017.83,38.7
2019-12-10 01:40,50.6304433333333,-96.9807733333333,15.4,21.2,348,988.36,-18.0,71,0.56,0.0,1018.16,38.7
2019-12-10 01:50,50.630445,-96.9807733333333,15.1,20.2,350,988.62,-18.0,72,0.56,0.0,1018.42,38.7
2019-12-10 02:00,50.630445,-96.9807733333333,14.8,20.6,348,988.77,-18.1,71,0.56,0.0,1018.59,270.0
2019-12-10 02:10,50.6304466666667,-96.9807733333333,14.6,19.3,351,988.98,-18.2,71,0.56,0.0,1018.81,270.0
2019-12-10 02:20,50.6304483333333,-96.9807716666667,13.0,18.6,338,989.16,-18.4,73,0.56,0.0,1019.02,270.0
2019-12-10 02:30,50.63045,-96.9807733333333,14.9,22.2,343,989.23,-18.5,72,0.57,0.0,1019.10,270.0
2019-12-10 02:40,50.630455,-96.9807483333333,15.3,20.7,347,989.43,-18.7,70,0.57,0.0,1019.32,270.0
2019-12-10 02:50,50.6304566666667,-96.980755,17.4,22.5,347,989.52,-19.1,68,0.56,0.0,1019.45,270.0
2019-12-10 03:00,50.6304566666667,-96.980755,15.2,22.0,340,989.74,-19.3,68,0.56,0.0,1019.69,14.5
2019-12-10 03:10,50.6304533333333,-96.9807583333333,14.0,19.1,340,989.97,-19.5,68,0.56,0.0,1019.94,14.5
2019-12-10 03:20,50.63045,-96.9807566666667,13.8,20.5,341,990.21,-19.8,70,0.57,0.0,1020.23,14.5
2019-12-10 03:30,50.6304533333333,-96.9807666666667,13.7,17.9,335,990.29,-20.1,69,0.57,0.0,1020.34,14.5
2019-12-10 03:40,50.6304583333333,-96.9807666666667,13.1,20.6,335,990.43,-20.2,70,0.57,0.0,1020.50,14.5
2019-12-10 03:50,50.63045,-96.9807733333333,11.0,17.1,335,990.72,-20.4,70,0.57,0.0,1020.81,14.5
2019-12-10 04:00,50.630445,-96.98075,11.0,18.5,336,990.89,-20.6,70,0.57,0.0,1021.00,360.0
2019-12-10 04:10,50.6304533333333,-96.98075,11.5,16.5,333,991.00,-20.8,70,0.57,0.0,1021.14,360.0
2019-12-10 04:20,50.6304666666667,-96.9807716666667,9.8,15.2,312,991.20,-21.3,71,0.56,0.0,1021.38,360.0
2019-12-10 04:30,50.6304466666667,-96.9807516666667,11.1,16.1,314,991.42,-22.2,70,0.56,0.0,1021.68,360.0
2019-12-10 04:40,50.6304183333333,-96.9807383333333,11.7,17.3,312,991.61,-22.6,71,0.56,0.0,1021.92,360.0
2019-12-10 04:50,50.6304416666667,-96.9807566666667,12.6,18.9,316,991.67,-23.0,70,0.56,0.0,1022.02,360.0
2019-12-10 05:00,50.63044,-96.9807566666667,10.4,16.6,311,991.98,-23.3,70,0.55,0.0,1022.37,90.0
2019-12-10 05:10,50.6304416666667,-96.9807666666667,10.1,16.0,312,992.18,-23.5,70,0.55,0.0,1022.61,90.0
2019-12-10 05:20,50.6304433333333,-96.980765,9.9,16.2,311,992.29,-23.6,70,0.55,0.0,1022.74,90.0
2019-12-10 05:30,50.630445,-96.980765,10.0,15.0,310,992.39,-23.8,70,0.54,0.0,1022.87,90.0
2019-12-10 05:40,50.6304466666667,-96.9807683333333,8.4,12.8,312,992.56,-23.9,70,0.53,0.0,1023.06,90.0
2019-12-10 05:50,50.6304483333333,-96.9807666666667,9.6,14.5,308,992.57,-24.0,70,0.52,0.0,1023.09,90.0
2019-12-10 06:00,50.6304466666667,-96.98077,10.9,15.3,310,992.64,-24.1,70,0.52,0.0,1023.18,228.3
2019-12-10 06:10,50.6304433333333,-96.9807933333333,9.7,14.2,312,992.82,-24.2,70,0.52,0.0,1023.41,228.3
2019-12-10 06:20,50.63041,-96.9807783333333,9.4,13.6,314,992.96,-24.3,70,0.52,0.0,1023.60,228.3
2019-12-10 06:30,50.6304383333333,-96.9807366666667,9.1,15.2,314,993.08,-24.4,70,0.52,0.0,1023.76,228.3
2019-12-10 06:40,50.630445,-96.98077,9.3,15.7,315,993.16,-24.4,70,0.51,0.0,1023.87,228.3
2019-12-10 06:50,50.6304433333333,-96.98078,9.6,14.0,317,993.25,-24.4,70,0.51,0.0,1023.99,228.3
2019-12-10 07:00,50.63044,-96.98078,10.3,14.9,320,993.32,-24.5,70,0.50,0.0,1024.07,270.0
2019-12-10 07:10,50.63044,-96.9807833333333,9.7,15.7,318,993.45,-24.5,70,0.49,0.0,1024.21,270.0
2019-12-10 07:20,50.63044,-96.980785,8.6,12.5,309,993.57,-24.7,70,0.49,0.0,1024.36,270.0
2019-12-10 07:30,50.63044,-96.980785,8.7,12.4,312,993.61,-24.8,70,0.48,0.0,1024.42,270.0
2019-12-10 07:40,50.63044,-96.9807833333333,7.9,12.3,307,993.69,-24.8,71,0.48,0.0,1024.51,270.0
2019-12-10 07:50,50.63044,-96.9807816666667,8.0,11.9,307,993.72,-24.9,71,0.47,0.0,1024.56,270.0
2019-12-10 08:00,50.63044,-96.9807816666667,7.1,11.0,308,993.83,-25.0,71,0.47,0.0,1024.68,270.0
2019-12-10 08:10,50.6304216666667,-96.9807816666667,7.5,10.7,305,993.89,-25.1,71,0.46,0.0,1024.75,270.0
2019-12-10 08:20,50.6304566666667,-96.9807616666667,7.4,10.9,306,994.01,-25.2,71,0.45,0.0,1024.89,270.0
2019-12-10 08:30,50.6304333333333,-96.9807633333333,6.4,9.7,297,994.08,-25.3,71,0.45,0.0,1024.96,270.0
2019-12-10 08:40,50.630435,-96.9807666666667,7.5,11.2,303,993.98,-25.4,71,0.44,0.0,1024.87,270.0
2019-12-10 08:50,50.6304416666667,-96.9807666666667,6.7,10.5,307,994.01,-25.4,70,0.44,0.0,1024.91,270.0
2019-12-10 09:00,50.6304416666667,-96.9807483333333,6.6,10.9,305,994.07,-25.5,70,0.45,0.0,1024.97,125.3
2019-12-10 09:10,50.63046,-96.980765,7.1,11.8,297,994.10,-25.6,70,0.47,0.0,1025.02,125.3
2019-12-10 09:20,50.6304583333333,-96.980775,6.7,9.8,300,994.12,-25.6,69,0.46,0.0,1025.05,125.3
2019-12-10 09:30,50.6304583333333,-96.9807733333333,5.0,7.5,294,994.17,-25.7,70,0.45,0.0,1025.11,125.3
2019-12-10 09:40,50.6304583333333,-96.9807733333333,5.6,8.7,293,994.12,-25.8,70,0.44,0.0,1025.07,125.3
2019-12-10 09:50,50.6304583333333,-96.980775,4.6,7.8,292,994.14,-25.9,69,0.43,0.0,1025.10,125.3
2019-12-10 10:00,50.6304433333333,-96.980775,5.6,9.1,289,994.13,-26.0,69,0.42,0.0,1025.10,90.0
2019-12-10 10:10,50.6304533333333,-96.9807716666667,4.7,6.7,283,994.20,-26.0,69,0.42,0.0,1025.18,90.0
2019-12-10 10:20,50.6304333333333,-96.980775,4.9,9.3,288,994.26,-26.1,69,0.41,0.0,1025.26,90.0
2019-12-10 10:30,50.6304683333333,-96.9807816666667,4.6,7.1,286,994.22,-26.1,69,0.41,0.0,1025.22,90.0
2019-12-10 10:40,50.630455,-96.98077,5.0,7.4,286,994.20,-26.2,69,0.40,0.0,1025.21,90.0
2019-12-10 10:50,50.6304566666667,-96.98077,4.9,7.6,280,994.22,-26.2,69,0.40,0.0,1025.23,90.0
2019-12-10 11:00,50.6304583333333,-96.9807683333333,4.5,7.0,272,994.23,-26.2,69,0.39,0.0,1025.25,41.2
2019-12-10 11:10,50.630455,-96.98077,4.4,6.8,273,994.22,-26.2,69,0.39,0.0,1025.24,41.2
2019-12-10 11:20,50.6304533333333,-96.98077,4.3,7.3,267,994.13,-26.2,69,0.38,0.0,1025.16,41.2
2019-12-10 11:30,50.6304483333333,-96.98079,4.8,7.8,261,994.09,-26.3,69,0.38,0.0,1025.13,41.2
2019-12-10 11:40,50.63044,-96.9807633333333,5.1,8.7,274,994.13,-26.2,69,0.38,0.0,1025.17,41.2
2019-12-10 11:50,50.6304466666667,-96.9807716666667,4.6,8.6,257,994.17,-26.3,69,0.38,0.0,1025.22,41.2
2019-12-10 12:00,50.6304483333333,-96.9807766666667,4.6,7.5,254,994.05,-26.4,69,0.37,0.0,1025.10,293.6
2019-12-10 12:10,50.6304483333333,-96.980775,4.4,6.0,239,994.03,-26.5,69,0.37,0.0,1025.10,293.6
2019-12-10 12:20,50.6304483333333,-96.98077,5.1,7.2,244,994.11,-26.6,69,0.37,0.0,1025.19,293.6
2019-12-10 12:30,50.630445,-96.9807733333333,5.3,7.5,248,994.11,-26.7,69,0.35,0.0,1025.20,293.6
2019-12-10 12:40,50.6304466666667,-96.9807716666667,5.0,7.2,248,994.01,-26.8,69,0.34,0.0,1025.10,293.6
2019-12-10 12:50,50.6304483333333,-96.9807733333333,5.4,7.8,251,993.91,-26.7,70,0.33,0.0,1024.99,293.6
2019-12-10 13:00,50.6304483333333,-96.980775,5.6,7.4,248,993.86,-26.7,70,0.33,0.0,1024.94,360.0
2019-12-10 13:10,50.6304466666667,-96.9807733333333,5.6,7.9,248,993.77,-26.6,70,0.32,0.0,1024.85,360.0
2019-12-10 13:20,50.6304716666667,-96.98078,5.4,7.8,254,993.62,-26.5,70,0.31,0.0,1024.69,360.0
2019-12-10 13:30,50.6304466666667,-96.9807816666667,5.9,8.5,254,993.59,-26.4,70,0.30,0.0,1024.64,360.0
2019-12-10 13:40,50.6304516666667,-96.9807666666667,5.8,8.0,252,993.55,-26.4,70,0.30,0.0,1024.61,360.0
2019-12-10 13:50,50.63045,-96.9807683333333,5.2,7.4,249,993.39,-26.5,70,0.31,0.0,1024.46,360.0
2019-12-10 14:00,50.63045,-96.9807666666667,4.7,6.3,251,993.27,-26.5,70,0.31,0.0,1024.34,142.0
2019-12-10 14:10,50.6304483333333,-96.9807633333333,3.8,5.4,245,993.17,-26.5,70,0.31,0.0,1024.25,142.0
2019-12-10 14:20,50.6304483333333,-96.9807666666667,4.3,6.4,238,993.09,-26.5,70,0.30,0.0,1024.17,142.0
2019-12-10 14:30,50.6304466666667,-96.9807666666667,5.4,7.3,233,993.01,-26.3,70,0.29,0.0,1024.08,142.0
2019-12-10 14:40,50.6304466666667,-96.980765,5.5,7.3,228,992.84,-26.2,69,0.29,0.0,1023.89,142.0
2019-12-10 14:50,50.6304466666667,-96.9807666666667,4.8,7.3,229,992.84,-26.0,68,0.28,0.0,1023.87,142.0
2019-12-10 15:00,50.6304416666667,-96.9807533333333,5.2,7.5,225,992.70,-25.7,68,0.28,0.0,1023.70,113.6
2019-12-10 15:10,50.630445,-96.9807583333333,5.2,7.2,223,992.59,-25.4,67,0.28,0.0,1023.57,113.6
2019-12-10 15:20,50.6304416666667,-96.9807316666667,5.3,7.3,218,992.35,-25.1,67,0.28,0.0,1023.29,113.6
2019-12-10 15:30,50.63045,-96.9807533333333,4.8,7.0,219,992.21,-24.8,66,0.28,0.0,1023.13,113.6
2019-12-10 15:40,50.6304466666667,-96.9807566666667,5.2,6.8,208,991.99,-24.5,66,0.28,0.0,1022.89,113.6
2019-12-10 15:50,50.6304516666667,-96.980755,6.5,8.5,217,991.91,-24.2,65,0.29,0.0,1022.79,113.6
2019-12-10 16:00,50.63045,-96.9807583333333,6.6,8.9,210,991.73,-23.8,65,0.29,0.0,1022.58,54.7
2019-12-10 16:10,50.6304483333333,-96.9807566666667,7.0,9.5,207,991.64,-23.5,65,0.30,0.0,1022.46,54.7
2019-12-10 16:20,50.63045,-96.9807583333333,6.8,8.7,205,991.70,-23.1,65,0.30,0.0,1022.49,54.7
2019-12-10 16:30,50.6304483333333,-96.9807583333333,8.3,12.1,213,991.73,-22.9,65,0.31,0.0,1022.50,54.7
2019-12-10 16:40,50.6304483333333,-96.98076,8.2,10.5,204,991.52,-22.6,65,0.30,0.0,1022.26,54.7
2019-12-10 16:50,50.6304483333333,-96.9807616666667,10.0,11.7,190,991.26,-22.6,66,0.30,0.0,1021.97,54.7
2019-12-10 17:00,50.6304483333333,-96.9807633333333,10.0,13.1,193,991.08,-22.4,66,0.30,0.0,1021.75,360.0
2019-12-10 17:10,50.6304316666667,-96.9807633333333,11.1,15.2,193,990.73,-22.3,66,0.30,0.0,1021.36,360.0
2019-12-10 17:20,50.6304366666667,-96.9807683333333,10.9,13.9,194,990.54,-22.2,66,0.31,0.0,1021.14,360.0
2019-12-10 17:30,50.6304333333333,-96.980765,11.7,15.0,197,990.45,-22.2,66,0.31,0.0,1021.03,360.0
2019-12-10 17:40,50.6304333333333,-96.980765,11.9,15.6,191,990.28,-22.2,67,0.31,0.0,1020.84,360.0
2019-12-10 17:50,50.6304333333333,-96.9807683333333,10.7,14.2,189,990.16,-22.0,67,0.31,0.0,1020.68,360.0
2019-12-10 18:00,50.6304616666667,-96.9808016666667,9.5,12.2,192,990.10,-21.6,66,0.31,0.0,1020.57,303.9
2019-12-10 18:10,50.6304483333333,-96.9807766666667,8.7,11.1,201,990.06,-21.3,66,0.31,0.0,1020.50,303.9
2019-12-10 18:20,50.63045,-96.9807733333333,8.3,13.0,210,990.01,-20.6,63,0.30,0.0,1020.38,303.9
2019-12-10 18:30,50.6304366666667,-96.9807916666667,8.5,11.0,197,989.91,-20.8,64,0.30,0.0,1020.28,303.9
2019-12-10 18:40,50.6304416666667,-96.9807833333333,11.0,14.8,226,989.87,-20.4,59,0.30,0.0,1020.21,303.9
2019-12-10 18:50,50.6304383333333,-96.9807816666667,10.8,15.0,228,989.68,-20.5,59,0.30,0.0,1020.01,303.9
2019-12-10 19:00,50.6304233333333,-96.9807716666667,10.5,14.4,225,989.43,-20.4,60,0.31,0.0,1019.74,200.1
2019-12-10 19:10,50.6304266666667,-96.98077,11.4,15.1,230,989.39,-20.1,59,0.31,0.0,1019.67,200.1
2019-12-10 19:20,50.6304283333333,-96.98077,9.6,13.6,228,989.28,-19.9,59,0.32,0.0,1019.55,200.1
2019-12-10 19:30,50.63043,-96.98077,9.9,15.2,241,989.19,-19.5,58,0.32,0.0,1019.42,200.1
2019-12-10 19:40,50.6304316666667,-96.98077,10.1,13.6,238,989.09,-19.5,59,0.32,0.0,1019.31,200.1
2019-12-10 19:50,50.6304333333333,-96.98077,8.3,12.1,243,988.98,-19.6,61,0.33,0.0,1019.18,200.1
2019-12-10 20:00,50.630435,-96.98077,10.0,15.0,252,988.83,-19.2,59,0.33,0.0,1018.98,360.0
2019-12-10 20:10,50.6304333333333,-96.9807716666667,8.9,13.1,241,988.84,-19.0,58,0.34,0.0,1018.94,360.0
2019-12-10 20:20,50.6304333333333,-96.9807716666667,8.1,11.7,255,988.92,-19.0,59,0.35,0.0,1019.03,360.0
2019-12-10 20:30,50.6304316666667,-96.9807516666667,7.5,11.0,255,988.91,-19.3,59,0.35,0.0,1019.01,360.0
2019-12-10 20:40,50.6304316666667,-96.9807666666667,6.3,9.8,256,988.91,-18.9,59,0.36,0.0,1019.00,360.0
2019-12-10 20:50,50.63043,-96.9807683333333,7.5,10.4,260,988.87,-18.8,59,0.36,0.0,1018.95,360.0
2019-12-10 21:00,50.6304316666667,-96.9807666666667,8.1,11.0,260,988.71,-19.1,61,0.37,0.0,1018.78,143.4
2019-12-10 21:10,50.630435,-96.98077,7.2,9.6,253,988.66,-19.1,63,0.38,0.0,1018.72,143.4
2019-12-10 21:20,50.6304383333333,-96.98077,6.2,8.8,255,988.70,-19.1,65,0.38,0.0,1018.74,143.4
2019-12-10 21:30,50.63044,-96.98077,5.6,8.6,257,988.82,-19.0,65,0.38,0.0,1018.86,143.4
2019-12-10 21:40,50.63044,-96.9807716666667,6.8,9.6,258,988.94,-19.1,65,0.39,0.0,1018.98,143.4
2019-12-10 21:50,50.63044,-96.9807716666667,5.2,8.7,258,989.06,-19.2,66,0.39,0.0,1019.09,143.4
2019-12-10 22:00,50.6304416666667,-96.9807716666667,5.2,8.0,274,989.19,-19.1,66,0.39,0.0,1019.21,38.0
2019-12-10 22:10,50.6304416666667,-96.9807733333333,5.0,7.1,287,989.22,-19.1,66,0.39,0.0,1019.24,38.0
2019-12-10 22:20,50.6304516666667,-96.9807633333333,6.7,10.3,295,989.24,-19.2,69,0.40,0.0,1019.28,38.0
2019-12-10 22:30,50.6304483333333,-96.9807716666667,7.9,12.7,297,989.42,-19.2,65,0.40,0.0,1019.45,38.0
2019-12-10 22:40,50.63045,-96.9807716666667,6.9,10.1,300,989.56,-19.3,62,0.40,0.0,1019.59,38.0
2019-12-10 22:50,50.6304483333333,-96.9807716666667,7.5,11.7,304,989.70,-19.5,65,0.40,0.0,1019.76,38.0
2019-12-10 23:00,50.6304483333333,-96.9807733333333,6.4,8.5,313,989.85,-19.7,69,0.40,0.0,1019.93,345.5
2019-12-10 23:10,50.6304483333333,-96.9807716666667,6.5,10.9,305,989.99,-19.8,70,0.41,0.0,1020.08,345.5
2019-12-10 23:20,50.6304466666667,-96.98077,7.7,11.4,297,990.00,-19.9,67,0.41,0.0,1020.10,345.5
2019-12-10 23:30,50.6304466666667,-96.9807683333333,8.0,11.8,299,990.11,-20.1,65,0.41,0.0,1020.22,345.5
2019-12-10 23:40,50.6304266666667,-96.9807633333333,7.4,12.1,297,990.15,-20.3,66,0.41,0.0,1020.29,345.5
